DELTA 1 DEB, 7173

Orbit data source: Space-Track

DELTA 1 DEB, 7173 is space debris in SSO originally from a launch on Tue, 06 Nov 1973 UTC launched from the Air Force Western Test Range (AFWTR). Debris objects in space refer to the collection of defunct objects orbiting the Earth. Examples of debris include non-operational satellites, rocket bodies, and fragments generated from explosions, collisions, or faulty payload assembly.

Loading next visibility...
Identifier
7173, 1973-086EK
Orbit
SSO
Country
Flag of USUS
Related business
Manufacturer
Unknown
Mission
Spacecraft
Bus & Motor
Unknown
Mass
Unknown
Launch date (UTC)
1973-11-06 (53 years ago)
Launch vehicle
Unknown
Launch site
Air Force Western Test Range (AFWTR)
Object type
Payload
Rocket body
Debris
Shape & HBR
Unknown shape, 0.1 m
Radar Cross Section
Medium (>0.1 m² and <1 m²)

Expand to show TLE details & history
Last TLE update: 3 days ago

TLE from 3 days ago
0 DELTA 1 DEB
1  7173U 73086EK  26171.32884144 -.00000205  00000-0 -12764-2 0  9994
2  7173 102.5506 319.2393 0227782 111.0115 282.0188 12.28334362178297
Epoch: 2026-06-20T07:53Z
TLE epoch observation values (Epoch: 2026-06-20T07:53:31.900Z)
Latitude
29.70939°
Longitude
-74.95081°
Altitude
1,526.14 km
Speed
7.12 km/s
True Right ascension
20h 47m 54s
True Declination
29° 34' 33"
Sunlit
Object was in daylight at epoch
Visualization orbit readout
Latitude
Unknown
Longitude
Unknown
Altitude
Unknown
Speed
Unknown
Apparent Right ascension
Unknown
Apparent Declination
Unknown
Sunlit
N/A
Visualization observer readout
Local Sidereal Time
07:08:04
Azimuth
Unknown
Elevation
Unknown
Doppler factor
Unknown
Orbital elements
Apogee altitude
1,734.749 km
Perigee altitude
1,373.386 km
Semi-major axis
7,932.204 km
Eccentricity
0.02278
Inclination
102.5506°
RAAN
319.2393°
Arg. of periapsis
111.0115°
True anomaly
279.45146°
Mean anomaly
282.0188°
Eccentric anomaly
280.73655°
Mean motion
3.07222 °/min
Orbital period
117.18 mins
BSTAR
-0.0012764
Loading maneuver chart data...
Computing Atmospheric mass density...
Loading historical data...
Loading historical data...
Loading historical data...
Loading historical data...
Loading historical data...
Loading historical data...
Loading historical data...

Documentation

Showing up to 5 results
|